Terug naar catalogus

THORAD AGENA D DEB

ActiefSSO
NORAD 4683·DEBRIS·🇺🇸 United States

Gelanceerd Apr 8, 1970 vanaf Vandenberg Space Force Base

Loading…

Volgende Passages (komende 24 uur)

TLE

VersSource: Space-Track

Epoch: Sep 13, 2026, 01:29 UTC

1 04683U 70025BG  26256.06245500  .00000207  00000-0  48304-3 0  9999
2 04683 100.4089 299.1393 0121335 244.0702 144.6305 13.35051523739218

Volg THORAD AGENA D DEB in realtime met AllMySat

Download on the App Store